G8YN6G Weather Reports


Display with metric or nautical units.
time (UTC)temp
F
wind
direction
speed
MPH
gust
MPH
rain 1hr
in
rain 24hr
in
rain mn
in
humidity
%
barometer
mb
20260509161930 59 153 2.0 5.0 0.00 0.00 0.00 67 1009.0
20260509160929 59 160 3.0 4.0 0.00 0.00 0.00 67 1009.2
20260509155929 58 152 5.0 10.0 0.00 0.00 0.00 68 1008.9
20260509154930 57 150 4.0 9.0 0.00 0.00 0.00 68 1009.4
20260509153930 57 160 8.0 11.0 0.00 0.00 0.00 67 1009.5
20260509152930 58 158 3.0 8.0 0.00 0.00 0.00 68 1009.5
20260509152027 58 204 3.0 4.0 0.00 0.00 0.00 69 1009.5
20260509150030 56 123 6.0 11.0 0.00 0.00 0.00 68 1009.8
20260509145030 57 162 5.0 9.0 0.00 0.00 0.00 70 1010.1
20260509143128 56 130 6.0 10.0 0.00 0.00 0.00 71 1010.1
20260509142131 54 125 6.0 8.0 0.00 0.00 0.00 70 1009.8
20260509140129 54 123 3.0 8.0 0.00 0.00 0.00 72 1010.4
20260509134327 53 150 5.0 9.0 0.00 0.00 0.00 72 1010.5
20260509132329 52 125 5.0 9.0 0.00 0.00 0.00 71 1010.5
20260509131329 51 151 2.0 5.0 0.00 0.00 0.00 71 1010.5
20260509130331 50 148 4.0 8.0 0.00 0.00 0.00 71 1010.5
20260509125329 49 135 5.0 8.0 0.00 0.00 0.00 71 1010.6
20260509124329 47 138 3.0 5.0 0.00 0.00 0.00 70 1010.5
20260509123330 48 152 4.0 8.0 0.00 0.00 0.00 71 1010.5
20260509122428 47 119 5.0 8.0 0.00 0.00 0.00 71 1010.5
20260509122329 47 103 4.0 8.0 0.00 0.00 0.00 72 1010.4
20260509120328 44 160 3.0 4.0 0.00 0.00 0.00 72 1010.5
20260509115328 45 133 3.0 6.0 0.00 0.00 0.00 73 1010.5
20260509114329 45 129 3.0 4.0 0.00 0.00 0.00 74 1010.5
20260509112429 44 144 4.0 6.0 0.00 0.00 0.00 75 1010.5
20260509111429 42 151 4.0 6.0 0.00 0.00 0.00 75 1010.5
20260509110527 43 155 3.0 6.0 0.00 0.00 0.00 77 1010.2
20260509105528 41 165 3.0 5.0 0.00 0.00 0.00 77 1010.2
20260509104529 42 136 3.0 5.0 0.00 0.00 0.00 79 1010.2
20260509103528 41 157 3.0 6.0 0.00 0.00 0.00 81 1010.2
20260509101529 41 143 3.0 5.0 0.00 0.00 0.00 82 1010.2
20260509094627 41 164 2.0 4.0 0.00 0.00 0.00 83 1010.1
20260509094528 41 180 3.0 4.0 0.00 0.00 0.00 83 1010.0
20260509093528 41 178 3.0 6.0 0.00 0.00 0.00 84 1010.2
20260509092527 39 157 4.0 9.0 0.00 0.00 0.00 84 1010.2
20260509091528 39 153 3.0 5.0 0.00 0.00 0.00 85 1010.2
20260509090531 39 141 2.0 3.0 0.00 0.00 0.00 85 1010.2
20260509085629 40 151 3.0 5.0 0.00 0.00 0.00 86 1010.5
20260509083628 40 160 3.0 5.0 0.00 0.00 0.00 85 1010.5
20260509082728 40 155 3.0 4.0 0.00 0.00 0.00 85 1010.5
20260509081728 41 159 3.0 5.0 0.00 0.00 0.00 85 1010.6
20260509080828 41 155 5.0 8.0 0.00 0.00 0.00 84 1010.9
20260509075830 41 142 3.0 6.0 0.00 0.00 0.00 83 1010.9
20260509074928 41 158 4.0 8.0 0.00 0.00 0.00 82 1010.9
20260509072927 41 147 4.0 7.0 0.00 0.00 0.00 77 1010.9
20260509071930 42 149 2.0 6.0 0.00 0.00 0.00 74 1010.9
20260509070929 42 155 5.0 6.0 0.00 0.00 0.00 72 1010.9
20260509065929 41 168 2.0 4.0 0.00 0.00 0.00 71 1011.2
20260509064929 42 128 3.0 5.0 0.00 0.00 0.00 73 1011.2
20260509063929 42 127 2.0 4.0 0.00 0.00 0.00 73 1011.5
20260509063027 42 164 3.0 5.0 0.00 0.00 0.00 73 1011.5
20260509061029 42 175 3.0 5.0 0.00 0.00 0.00 72 1011.5
20260509060028 42 166 2.0 3.0 0.00 0.00 0.00 71 1011.5
20260509055030 42 163 1.0 2.0 0.00 0.00 0.00 70 1011.9
20260509054029 43 157 3.0 4.0 0.00 0.00 0.00 71 1011.9
20260509053030 42 148 2.0 3.0 0.00 0.00 0.00 70 1011.9
20260509051030 42 187 2.0 3.0 0.00 0.00 0.00 69 1011.9
20260509050029 43 155 4.0 6.0 0.00 0.00 0.00 69 1012.2
20260509045028 43 157 5.0 7.0 0.00 0.00 0.00 69 1012.2
20260509043130 43 157 2.0 6.0 0.00 0.01 0.00 68 1012.2
20260509041129 43 137 3.0 4.0 0.00 0.01 0.00 67 1012.2
20260509040129 42 144 3.0 4.0 0.00 0.01 0.00 68 1012.2
20260509035113 42 157 2.0 4.0 0.00 0.01 0.01 67 1012.6
20260509033114 42 157 1.0 2.0 0.00 0.01 0.01 70 1012.6
20260509032114 42 157 2.0 3.0 0.00 0.01 0.01 70 1012.2
20260509031113 43 157 1.0 3.0 0.00 0.01 0.01 71 1012.6
20260509030211 43 157 2.0 3.0 0.00 0.01 0.01 70 1012.6
20260509024212 44 157 1.0 3.0 0.00 0.01 0.01 67 1012.6
20260509023213 45 157 0.0 1.0 0.00 0.01 0.01 64 1012.6
20260509022214 45 157 1.0 2.0 0.00 0.01 0.01 63 1012.9
20260509021214 45 157 0.0 2.0 0.00 0.01 0.01 62 1012.9
20260509020212 46 157 2.0 3.0 0.00 0.01 0.01 60 1012.9
20260509015213 45 157 1.0 2.0 0.00 0.01 0.01 57 1012.6
20260509014215 46 130 1.0 2.0 0.00 0.01 0.01 55 1012.6
20260509013213 47 157 1.0 2.0 0.00 0.01 0.01 53 1012.6
20260509012311 47 135 0.0 0.0 0.00 0.01 0.01 52 1012.6
20260509011315 48 135 0.0 0.0 0.00 0.01 0.01 51 1012.6
20260509010313 48 157 1.0 2.0 0.00 0.01 0.01 50 1012.2
20260509005315 48 157 0.0 0.0 0.00 0.01 0.01 48 1012.2
20260509004312 48 247 0.0 0.0 0.00 0.01 0.01 46 1012.2
20260509003316 49 247 0.0 0.0 0.00 0.01 0.01 44 1012.2
20260509001312 51 247 0.0 0.0 0.00 0.01 0.01 41 1012.2
20260509000314 52 292 1.0 3.0 0.00 0.01 0.01 40 1012.2
20260508235413 51 202 0.0 0.0 0.00 0.01 0.01 38 1012.2
20260508234415 52 331 2.0 3.0 0.00 0.01 0.01 36 1012.2
20260508233411 52 225 0.0 0.0 0.00 0.01 0.01 34 1012.2
20260508232413 52 247 0.0 0.0 0.00 0.01 0.01 34 1012.2
20260508231412 55 280 2.0 4.0 0.00 0.01 0.01 33 1012.2
20260508230511 57 267 1.0 3.0 0.00 0.01 0.01 34 1012.2
20260508225514 57 237 1.0 4.0 0.00 0.01 0.01 34 1012.5
20260508224515 57 194 1.0 4.0 0.00 0.01 0.01 34 1012.5
20260508223611 57 295 1.0 3.0 0.00 0.01 0.01 34 1012.2
20260508222612 55 245 4.0 6.0 0.00 0.01 0.01 34 1012.6
20260508221612 55 312 3.0 6.0 0.00 0.01 0.01 35 1012.5
20260508220711 57 254 2.0 4.0 0.00 0.01 0.01 37 1012.5
20260508215712 57 204 2.0 5.0 0.00 0.01 0.01 39 1012.6
20260508214712 57 228 3.0 4.0 0.00 0.01 0.01 40 1012.6
20260508213711 55 205 1.0 3.0 0.00 0.01 0.01 40 1012.6
20260508211716 55 260 2.0 6.0 0.00 0.01 0.01 45 1012.9
20260508210713 56 197 2.0 4.0 0.00 0.01 0.01 47 1012.6
20260508205713 56 326 0.0 2.0 0.00 0.01 0.01 49 1012.7
20260508204811 56 232 1.0 5.0 0.00 0.01 0.01 50 1013.1
20260508203812 56 310 2.0 4.0 0.00 0.01 0.01 52 1012.9
20260508202814 55 345 3.0 8.0 0.00 0.01 0.01 52 1013.0
20260508201813 55 356 3.0 5.0 0.00 0.01 0.01 54 1013.2
20260508200813 53 288 1.0 4.0 0.00 0.01 0.01 54 1013.2
20260508195813 53 314 2.0 4.0 0.00 0.01 0.01 55 1013.3
20260508194814 52 299 0.0 2.0 0.00 0.01 0.01 58 1013.6
20260508193912 51 302 3.0 5.0 0.00 0.01 0.01 56 1014.0
20260508192912 52 312 4.0 8.0 0.00 0.01 0.01 58 1013.6
20260508191914 52 285 2.0 4.0 0.00 0.01 0.01 58 1013.6
20260508190914 51 300 3.0 7.0 0.00 0.01 0.01 57 1013.6
20260508185913 52 311 1.0 6.0 0.00 0.01 0.01 60 1013.6
20260508184912 49 315 4.0 7.0 0.00 0.01 0.01 59 1014.0
20260508183914 51 308 3.0 6.0 0.00 0.01 0.01 61 1013.6
20260508182913 50 275 2.0 5.0 0.00 0.01 0.01 63 1014.0
20260508181013 49 297 5.0 9.0 0.00 0.01 0.01 62 1014.0
20260508180013 49 314 1.0 4.0 0.00 0.01 0.01 63 1014.0
20260508175012 49 302 4.0 9.0 0.00 0.01 0.01 62 1014.0
20260508174111 50 274 2.0 6.0 0.00 0.01 0.01 63 1014.0
20260508173211 49 271 2.0 5.0 0.00 0.01 0.01 65 1014.2
20260508172213 48 289 2.0 4.0 0.00 0.01 0.01 67 1014.3
20260508171312 49 267 4.0 8.0 0.00 0.01 0.01 67 1014.5
20260508170312 49 258 2.0 5.0 0.00 0.01 0.01 68 1014.3
20260508165313 47 270 4.0 6.0 0.00 0.01 0.01 66 1014.3
20260508164312 49 235 3.0 5.0 0.00 0.01 0.01 66 1014.3
20260508163314 50 308 5.0 10.0 0.00 0.01 0.01 64 1014.3
20260508162313 50 191 2.0 5.0 0.00 0.01 0.01 60 1014.3